Location: Piotrkow Trybunalski
(51.4000°N, 19.6830°E)
Time: 08:29:17
(UTC+01:00)

Transit 4A - Pass Details

Date: 05 December 2023
Orbit: 869 x 973 km, 66.8° (Epoch: 28 February)

Event Time Altitude Azimuth Distance (km) Brightness Sun altitude
Exits shadow 02:17:34 13° 80° (E) 2,376 10.5 -46.8°
Drops below altitude 10° 02:18:22 10° 85° (E) 2,605 10.7 -46.7°
Sets 02:21:14 0° 97° (E) 3,527 11.5 -46.3°
